Wind_Speed
59 62 64 64 66 70 73 80 88 89 91 83 82 83 82 92 101 99 85 87 90 95 96 89 90 89 88 85 83 78 76 72 71 67 62 69 62 63 63 61 59 57 58 62 61
53 56 60 63 66 68 72 77 83 92 92 92 95 93 89 90 92 96 103 95 91 89 91 90 87 91 86 89 84 80 71 65 69 71 68 67 66 66 66 62 66 64 65 66 66
30 42 54 59 63 67 70 74 79 91 97 98 96 98 95 93 92 92 99 102 100 100 94 94 96 93 88 88 88 83 76 75 76 73 73 73 70 70 67 64 69 71 71 73 71
22 28 36 47 58 65 70 75 78 81 86 93 95 102 98 98 100 94 99 102 104 107 104 100 100 102 94 91 90 90 81 85 82 82 80 74 77 76 75 69 72 74 74 72 71
30 32 34 36 41 51 61 70 77 80 84 87 92 94 101 103 105 105 105 100 101 102 107 106 108 106 106 104 99 95 86 92 88 88 86 84 82 80 79 79 77 69 69 68 69
37 39 41 43 45 47 51 56 64 72 80 85 87 89 90 94 109 115 110 109 106 106 102 104 105 107 108 105 108 99 99 94 87 81 78 80 77 79 73 75 71 73 75 75 68
37 43 46 50 53 55 58 60 63 70 74 79 84 87 88 93 100 104 110 112 110 109 110 104 106 108 105 103 100 99 105 102 92 88 84 87 79 74 71 70 71 74 76 72 67
37 40 45 52 58 62 66 69 71 75 79 82 86 86 86 97 98 103 105 111 115 117 113 115 111 110 102 99 96 95 95 90 82 86 82 89 75 68 71 77 78 76 74 72 67
37 41 45 49 54 58 63 69 77 83 87 89 91 91 93 96 99 102 104 107 110 115 115 114 116 110 109 104 100 98 90 85 80 86 88 95 66 76 79 83 85 79 75 72 69
36 39 44 44 47 53 56 64 70 79 90 98 100 98 100 102 101 103 106 107 109 112 117 115 115 115 111 108 100 95 93 95 89 89 94 94 79 75 81 83 82 77 75 69 68
37 41 44 47 51 58 61 64 69 76 83 96 100 106 110 106 104 105 107 108 109 109 111 116 118 110 98 104 113 110 102 97 91 90 92 86 79 72 79 75 73 72 72 73 70
40 45 49 52 57 62 66 67 67 72 78 99 95 100 109 116 108 109 110 109 111 112 114 114 108 103 104 112 111 107 103 95 98 95 93 93 83 75 75 72 71 72 72 69 70
45 48 51 57 63 69 67 64 70 79 67 67 83 98 98 104 111 118 117 115 114 113 115 113 106 107 107 105 105 103 102 100 103 103 102 102 97 88 74 75 74 69 71 73 77
46 49 58 62 68 65 61 67 78 74 72 63 61 74 84 90 101 115 121 120 117 113 114 109 106 110 110 105 103 97 97 97 98 95 94 101 91 87 82 78 75 74 77 82 79
46 52 57 65 58 56 58 66 77 70 52 48 52 58 69 75 86 96 108 117 122 121 115 104 108 109 107 107 106 99 99 97 95 90 90 90 89 67 79 78 81 76 74 74 70
48 51 58 62 55 53 59 64 66 57 46 38 44 47 57 69 77 84 91 99 114 122 119 113 112 108 104 105 105 101 100 100 96 91 86 80 79 65 71 73 70 62 59 57 56
51 57 59 62 56 57 61 63 60 51 43 37 33 41 48 59 71 83 87 89 99 110 113 120 119 111 108 103 99 96 96 97 95 92 79 76 72 62 65 66 58 52 49 49 49
54 62 62 64 58 61 64 66 56 45 39 34 31 34 43 50 56 72 85 88 91 94 97 110 117 113 111 107 102 99 96 91 83 79 70 67 57 53 53 48 45 45 42 41 36
58 63 68 68 66 66 69 66 49 41 36 35 25 28 33 42 49 59 72 82 86 83 81 93 101 109 113 112 108 103 96 90 86 80 73 62 53 50 52 39 33 34 35 33 25
61 63 65 69 71 68 68 69 52 44 37 29 27 20 22 32 40 46 56 68 74 78 83 87 89 96 106 111 107 103 99 98 89 83 73 63 55 43 48 37 27 25 27 23 21
58 64 65 73 75 72 67 69 56 45 41 34 26 20 17 21 29 36 44 53 59 66 76 80 82 90 96 97 102 101 98 96 94 86 73 65 56 48 50 41 33 30 30 26 20
56 63 68 72 77 74 66 65 55 50 41 36 30 20 15 16 23 29 36 41 50 58 62 68 79 86 83 83 89 95 98 93 89 83 76 64 56 62 54 41 35 34 29 25 21
58 65 68 69 73 77 72 69 64 56 46 38 32 26 17 12 16 22 28 34 40 45 48 53 64 81 84 78 83 84 88 90 85 80 72 68 58 62 56 46 38 33 27 24 17
58 66 70 70 73 77 75 68 69 60 47 40 33 30 24 15 14 16 20 27 34 40 44 48 58 69 81 80 78 75 79 80 79 75 70 60 71 62 56 50 39 27 28 24 18
61 62 67 65 74 77 76 68 64 66 50 41 35 30 23 17 13 13 15 22 28 33 34 40 48 54 63 70 70 70 70 68 69 71 71 67 67 62 59 53 44 37 30 27 23
61 66 67 66 72 75 72 70 65 64 57 43 36 31 24 20 13 8 11 17 22 27 30 34 40 46 50 57 64 68 65 60 63 65 65 68 63 64 59 49 44 40 32 29 22
61 64 66 66 70 74 71 68 64 61 60 49 41 34 26 19 14 8 7 9 13 20 24 26 30 36 42 48 58 67 70 63 64 62 59 61 63 62 53 43 33 27 28 27 23
Wind_Direction
236 236 237 236 236 235 235 232 227 231 231 234 231 238 239 241 239 239 237 237 240 243 244 245 245 248 246 249 250 251 251 248 252 250 249 259 254 257 257 263 264 263 267 269 270
241 240 240 241 242 240 238 236 234 233 231 233 235 237 239 244 242 242 238 238 239 240 241 242 243 247 246 247 247 249 247 248 250 253 251 255 254 256 258 260 266 266 268 271 273
238 241 243 245 244 242 244 242 237 234 237 238 237 237 239 239 243 244 243 243 243 243 242 243 244 243 246 247 249 248 249 248 250 251 250 252 260 257 262 262 265 270 272 269 272
256 248 243 244 244 242 242 240 241 240 240 239 241 238 240 237 240 240 243 244 244 245 244 245 247 245 244 246 247 246 247 250 251 253 251 254 259 264 265 266 269 271 271 274 276
266 260 256 253 250 246 244 243 241 240 240 240 240 239 239 240 242 240 243 245 244 246 245 246 247 246 247 245 245 247 249 250 252 255 256 255 259 262 267 268 269 271 272 273 276
263 260 259 258 255 253 250 248 245 245 244 242 241 240 239 239 239 241 241 244 245 245 245 246 246 247 247 250 250 248 246 249 252 256 258 259 259 261 267 266 266 266 268 271 276
271 264 260 257 255 255 253 251 249 245 244 243 244 243 241 240 238 240 240 240 243 244 244 247 247 247 248 248 249 251 251 252 254 254 260 263 259 263 258 258 261 265 270 273 277
279 271 265 262 260 258 254 252 250 249 246 246 244 242 241 242 240 239 241 239 241 243 246 246 245 245 246 246 248 249 249 252 256 260 259 256 256 256 255 259 262 264 269 274 275
284 275 271 269 265 264 262 259 255 251 248 246 244 242 241 241 241 241 241 239 240 240 243 247 247 245 246 246 248 250 251 254 257 257 256 259 251 258 259 260 261 265 268 272 275
286 280 278 279 280 278 270 259 258 255 252 247 244 242 242 240 240 239 239 240 240 240 241 244 246 246 246 247 250 251 252 253 250 250 253 254 249 251 254 260 262 266 269 271 273
295 296 296 295 296 293 290 281 268 256 252 251 245 243 242 240 240 240 240 239 239 241 242 242 244 247 249 248 249 250 251 251 251 248 250 254 252 249 255 258 262 265 267 269 271
307 307 304 304 302 302 298 294 284 270 260 256 254 248 241 243 239 238 239 238 239 239 240 241 243 243 243 246 247 249 246 246 244 247 249 252 257 252 256 260 259 263 264 271 273
314 313 311 310 310 309 304 297 288 281 275 267 260 256 249 243 240 240 239 239 239 238 239 240 241 243 243 244 246 247 249 248 249 249 250 254 256 258 257 258 259 263 265 268 268
320 321 320 317 314 310 305 299 293 295 294 283 261 251 251 246 242 239 237 239 240 239 238 237 238 241 242 243 244 245 247 247 248 250 252 255 253 256 253 253 258 261 267 265 272
325 327 328 323 316 312 310 306 301 303 294 278 265 253 245 242 241 240 240 238 237 238 238 237 237 238 240 242 244 242 243 244 247 249 250 254 257 254 256 258 257 260 263 267 272
329 329 332 334 326 322 322 314 309 309 302 286 270 256 245 238 236 240 238 236 237 237 236 237 238 239 238 240 242 241 243 245 246 248 249 252 256 255 254 254 258 262 264 267 271
337 339 339 340 336 334 332 328 323 316 309 297 277 262 249 241 234 232 236 236 236 235 235 234 237 236 238 238 240 243 245 245 246 249 250 248 252 252 254 254 259 264 267 267 266
342 345 345 347 345 344 343 339 330 323 313 304 291 264 254 246 237 236 234 234 235 234 232 234 235 236 238 238 238 239 242 244 245 246 245 245 247 249 250 255 261 258 259 256 253
346 348 348 350 353 351 349 343 337 332 323 313 301 278 259 246 241 235 236 237 237 235 232 232 234 235 235 236 237 238 239 241 243 245 245 246 242 238 251 252 246 247 242 243 242
347 352 352 354 356 356 352 351 346 342 334 324 309 290 264 248 246 239 239 237 238 237 231 231 229 232 233 233 235 237 236 237 238 240 242 243 241 235 242 245 229 226 230 235 243
351 355 357 356 357 357 356 357 351 352 344 335 320 299 275 253 247 244 236 237 236 235 235 230 229 232 232 231 231 232 235 236 235 235 235 235 240 235 236 233 225 222 235 243 241
352 355 356 354 357 357 356 360 360 356 352 343 332 317 289 257 248 237 239 234 232 233 233 229 228 231 233 231 230 229 230 231 233 234 233 229 229 231 237 235 231 232 233 244 239
347 350 353 355 358 359 358 1 3 360 356 352 345 335 314 284 243 240 240 233 232 234 233 230 225 224 231 229 229 228 229 229 228 229 230 227 227 232 234 233 229 228 229 237 233
345 348 352 353 357 359 0 3 2 2 357 354 353 346 333 321 282 251 238 230 228 228 222 219 223 222 225 224 225 225 226 225 225 225 225 219 223 228 228 230 226 225 229 230 234
346 350 350 354 358 359 360 2 4 2 359 356 354 349 342 326 299 261 239 232 230 231 226 220 219 218 223 222 222 220 222 223 221 221 221 221 224 225 225 224 223 223 225 230 226
351 352 352 356 357 0 1 360 1 3 2 357 355 350 346 330 315 288 257 232 223 219 220 217 217 217 214 215 216 217 218 215 213 215 213 211 218 220 221 222 223 223 228 230 230
352 353 354 354 357 359 1 1 359 360 5 1 354 352 344 338 332 326 272 245 222 217 212 211 209 209 207 206 209 208 211 209 207 207 206 203 211 215 209 215 218 226 230 230 223
Height
10718 10723 10726 10730 10734 10739 10742 10746 10752 10757 10761 10765 10768 10773 10778 10784 10791 10799 10803 10792 10803 10807 10813 10818 10820 10818 10829 10838 10840 10850 10868 10866 10866 10863 10861 10835 10863 10861 10861 10863 10869 10875 10876 10882 10884
10711 10714 10717 10719 10723 10725 10728 10732 10736 10740 10745 10749 10752 10759 10764 10771 10774 10783 10776 10781 10786 10792 10798 10798 10799 10799 10816 10822 10831 10840 10853 10854 10847 10848 10850 10834 10852 10848 10848 10858 10855 10864 10867 10871 10867
10703 10704 10706 10708 10710 10711 10714 10718 10721 10724 10727 10730 10735 10741 10748 10755 10757 10759 10766 10766 10768 10770 10777 10778 10779 10787 10801 10803 10817 10823 10840 10833 10833 10834 10834 10834 10832 10838 10841 10855 10848 10850 10855 10857 10856
10695 10694 10694 10694 10695 10697 10699 10700 10703 10707 10710 10713 10717 10723 10729 10737 10740 10743 10738 10742 10745 10748 10760 10760 10766 10770 10784 10789 10790 10806 10819 10815 10820 10817 10819 10832 10823 10830 10837 10845 10838 10840 10845 10844 10840
10686 10685 10684 10683 10682 10681 10681 10683 10685 10688 10691 10693 10697 10702 10710 10718 10717 10711 10718 10725 10728 10730 10738 10743 10746 10751 10762 10770 10768 10792 10803 10798 10803 10807 10813 10813 10821 10825 10827 10828 10829 10827 10826 10830 10834
10675 10674 10673 10671 10669 10668 10667 10668 10669 10671 10671 10672 10675 10681 10687 10697 10685 10688 10704 10706 10704 10710 10715 10722 10727 10727 10736 10750 10753 10775 10777 10784 10792 10801 10800 10797 10810 10812 10821 10809 10812 10812 10816 10820 10823
10662 10661 10660 10657 10657 10655 10654 10653 10653 10651 10650 10652 10654 10659 10667 10662 10665 10665 10673 10681 10681 10687 10693 10700 10701 10705 10722 10729 10741 10751 10757 10767 10786 10789 10787 10775 10802 10811 10795 10791 10800 10799 10806 10813 10813
10649 10648 10645 10643 10640 10639 10637 10636 10635 10631 10630 10630 10631 10636 10644 10632 10641 10641 10646 10657 10659 10664 10669 10670 10675 10686 10700 10713 10720 10729 10738 10758 10778 10768 10768 10742 10801 10786 10778 10781 10789 10793 10798 10802 10802
10637 10634 10630 10627 10623 10620 10617 10613 10610 10607 10606 10603 10602 10608 10610 10609 10611 10619 10621 10630 10634 10642 10648 10643 10650 10669 10681 10697 10704 10713 10737 10747 10758 10740 10734 10721 10794 10767 10766 10767 10779 10785 10787 10791 10792
10624 10620 10616 10612 10607 10601 10595 10589 10583 10581 10572 10569 10574 10580 10579 10579 10585 10592 10595 10602 10608 10615 10625 10625 10629 10645 10661 10678 10701 10699 10707 10728 10734 10717 10709 10715 10764 10756 10752 10754 10765 10774 10776 10779 10780
10610 10605 10600 10595 10589 10580 10571 10562 10556 10552 10539 10530 10540 10551 10545 10551 10562 10566 10568 10578 10585 10595 10602 10603 10608 10639 10656 10649 10664 10678 10691 10704 10705 10701 10693 10711 10731 10746 10742 10750 10756 10762 10762 10763 10769
10598 10592 10584 10577 10568 10557 10545 10533 10523 10516 10509 10494 10511 10511 10516 10515 10536 10538 10538 10548 10555 10566 10572 10577 10602 10617 10620 10624 10640 10653 10668 10688 10683 10681 10685 10685 10717 10737 10737 10741 10746 10747 10751 10756 10754
10585 10577 10569 10558 10547 10533 10520 10509 10495 10477 10479 10481 10475 10472 10477 10495 10504 10506 10507 10516 10528 10539 10549 10564 10586 10588 10599 10609 10622 10638 10647 10655 10658 10661 10677 10674 10698 10721 10728 10730 10731 10739 10742 10743 10738
10574 10565 10552 10541 10526 10509 10497 10482 10462 10453 10443 10435 10432 10433 10442 10456 10463 10468 10482 10494 10503 10517 10524 10549 10562 10567 10573 10589 10597 10618 10627 10629 10637 10648 10668 10654 10694 10704 10710 10714 10719 10726 10731 10725 10732
10563 10554 10541 10524 10508 10494 10478 10459 10436 10425 10414 10407 10400 10404 10412 10422 10423 10433 10446 10465 10478 10484 10501 10536 10532 10541 10555 10566 10576 10601 10602 10610 10622 10636 10646 10657 10666 10708 10685 10700 10698 10711 10717 10718 10721
10553 10541 10529 10512 10493 10478 10458 10438 10416 10401 10390 10385 10381 10382 10385 10392 10401 10406 10417 10432 10443 10455 10484 10500 10506 10517 10538 10546 10560 10570 10585 10596 10607 10621 10634 10654 10658 10684 10674 10675 10686 10701 10706 10708 10706
10543 10530 10514 10497 10477 10460 10442 10417 10398 10382 10373 10367 10364 10362 10364 10367 10378 10381 10389 10403 10408 10422 10459 10467 10478 10502 10513 10530 10543 10556 10566 10578 10593 10609 10643 10629 10653 10661 10652 10664 10685 10690 10693 10693 10691
10532 10517 10501 10484 10466 10445 10425 10406 10386 10371 10361 10355 10350 10348 10345 10350 10360 10365 10365 10374 10379 10400 10430 10439 10457 10485 10496 10508 10522 10536 10547 10564 10585 10598 10616 10617 10656 10651 10629 10663 10679 10678 10680 10678 10680
10521 10507 10489 10472 10453 10433 10415 10395 10378 10364 10352 10341 10339 10335 10335 10334 10339 10345 10348 10356 10365 10386 10411 10418 10440 10452 10468 10483 10497 10519 10538 10555 10565 10579 10596 10617 10635 10636 10631 10653 10664 10666 10668 10669 10672
10511 10499 10482 10464 10445 10428 10409 10385 10367 10354 10342 10334 10328 10326 10323 10321 10324 10330 10336 10339 10352 10367 10382 10394 10418 10427 10434 10453 10478 10495 10517 10527 10548 10563 10586 10607 10623 10634 10626 10643 10654 10659 10659 10662 10664
10505 10491 10475 10457 10441 10423 10407 10383 10361 10349 10336 10328 10322 10317 10314 10312 10314 10316 10320 10326 10337 10347 10357 10380 10398 10399 10405 10434 10456 10475 10489 10507 10527 10548 10577 10597 10614 10619 10615 10633 10643 10650 10652 10654 10657
10500 10486 10472 10455 10436 10420 10402 10383 10362 10345 10335 10324 10316 10311 10307 10306 10305 10305 10308 10316 10322 10329 10341 10360 10377 10385 10399 10420 10434 10450 10469 10488 10510 10541 10564 10585 10604 10591 10609 10627 10636 10642 10645 10647 10650
10491 10479 10466 10452 10436 10415 10394 10373 10355 10341 10331 10323 10314 10308 10303 10301 10299 10298 10302 10306 10311 10319 10331 10347 10362 10371 10377 10403 10413 10435 10453 10474 10498 10519 10548 10572 10592 10585 10600 10616 10627 10635 10639 10642 10644
10486 10472 10454 10441 10429 10413 10394 10375 10358 10345 10332 10322 10314 10306 10301 10297 10293 10293 10295 10298 10300 10304 10314 10325 10335 10349 10360 10380 10397 10421 10436 10458 10483 10513 10534 10560 10552 10575 10592 10605 10619 10628 10631 10637 10639
10478 10468 10456 10441 10421 10405 10390 10375 10363 10345 10333 10322 10313 10304 10298 10294 10291 10289 10289 10290 10294 10299 10308 10317 10324 10336 10349 10368 10390 10409 10428 10449 10476 10498 10519 10538 10542 10562 10577 10592 10606 10616 10624 10629 10635
10474 10459 10444 10433 10420 10407 10391 10374 10360 10348 10332 10321 10311 10303 10297 10291 10287 10286 10285 10285 10288 10293 10300 10309 10319 10328 10341 10356 10378 10399 10418 10437 10461 10480 10502 10517 10533 10544 10563 10583 10598 10609 10618 10623 10629
10467 10456 10445 10432 10417 10403 10391 10378 10363 10348 10336 10320 10308 10301 10295 10290 10286 10283 10282 10284 10286 10290 10295 10303 10314 10325 10336 10350 10364 10380 10397 10422 10447 10469 10492 10512 10519 10534 10557 10578 10593 10604 10612 10618 10621